| time (UTC) | temp F | wind direction | speed MPH | gust MPH | rain 1hr in | rain 24hr in | rain mn in | humidity % | barometer mb |
| 20260901201710 | 79 | 6 | 4.0 | 10.0 | 0.00 | 0.00 | 0.00 | 40 | 1009.0 |
| 20260901200730 | 79 | 280 | 1.0 | 5.0 | 0.00 | 0.00 | 0.00 | 41 | 1009.0 |
| 20260901195711 | 80 | 359 | 1.0 | 5.0 | 0.00 | 0.00 | 0.00 | 41 | 1009.2 |
| 20260901194710 | 78 | 354 | 2.0 | 6.0 | 0.00 | 0.00 | 0.00 | 41 | 1009.4 |
| 20260901193711 | 78 | 207 | 2.0 | 7.0 | 0.00 | 0.00 | 0.00 | 42 | 1009.6 |
| 20260901192731 | 78 | 53 | 1.0 | 5.0 | 0.00 | 0.00 | 0.00 | 41 | 1009.7 |
| 20260901191710 | 77 | 289 | 2.0 | 5.0 | 0.00 | 0.00 | 0.00 | 42 | 1009.9 |
| 20260901190711 | 76 | 344 | 1.0 | 4.0 | 0.00 | 0.00 | 0.00 | 43 | 1010.1 |
| 20260901185711 | 75 | 13 | 3.0 | 7.0 | 0.00 | 0.00 | 0.00 | 44 | 1010.3 |
| 20260901184710 | 75 | 212 | 1.0 | 3.0 | 0.00 | 0.00 | 0.00 | 47 | 1010.3 |
| 20260901183730 | 74 | 228 | 2.0 | 4.0 | 0.00 | 0.00 | 0.00 | 46 | 1010.4 |
| 20260901182750 | 73 | 18 | 1.0 | 5.0 | 0.00 | 0.00 | 0.00 | 47 | 1010.4 |
| 20260901181730 | 72 | 184 | 2.0 | 6.0 | 0.00 | 0.00 | 0.00 | 50 | 1010.5 |
| 20260901180731 | 71 | 186 | 3.0 | 7.0 | 0.00 | 0.00 | 0.00 | 51 | 1010.6 |
| 20260901175710 | 70 | 168 | 0.0 | 2.0 | 0.00 | 0.00 | 0.00 | 51 | 1010.7 |
| 20260901174711 | 70 | 195 | 1.0 | 4.0 | 0.00 | 0.00 | 0.00 | 51 | 1010.7 |
| 20260901173731 | 68 | 147 | 3.0 | 7.0 | 0.00 | 0.00 | 0.00 | 54 | 1010.8 |
| 20260901172711 | 68 | 173 | 3.0 | 7.0 | 0.00 | 0.00 | 0.00 | 52 | 1010.7 |
| 20260901171711 | 68 | 204 | 4.0 | 6.0 | 0.00 | 0.00 | 0.00 | 53 | 1010.6 |
| 20260901170711 | 67 | 131 | 4.0 | 8.0 | 0.00 | 0.00 | 0.00 | 54 | 1010.6 |
| 20260901165731 | 65 | 161 | 6.0 | 9.0 | 0.00 | 0.00 | 0.00 | 55 | 1010.7 |
| 20260901164711 | 63 | 102 | 6.0 | 9.0 | 0.00 | 0.00 | 0.00 | 57 | 1010.8 |
| 20260901163711 | 61 | 177 | 3.0 | 6.0 | 0.00 | 0.00 | 0.00 | 60 | 1010.8 |
| 20260901162731 | 62 | 203 | 4.0 | 6.0 | 0.00 | 0.00 | 0.00 | 59 | 1010.7 |
| 20260901161711 | 61 | 120 | 3.0 | 6.0 | 0.00 | 0.00 | 0.00 | 58 | 1010.7 |
| 20260901160711 | 60 | 103 | 4.0 | 6.0 | 0.00 | 0.00 | 0.00 | 60 | 1010.8 |
| 20260901155710 | 61 | 158 | 4.0 | 6.0 | 0.00 | 0.00 | 0.00 | 60 | 1010.9 |
| 20260901154710 | 60 | 151 | 5.0 | 9.0 | 0.00 | 0.00 | 0.00 | 60 | 1011.1 |
| 20260901153711 | 59 | 148 | 3.0 | 7.0 | 0.00 | 0.00 | 0.00 | 60 | 1011.1 |
| 20260901152711 | 57 | 143 | 4.0 | 6.0 | 0.00 | 0.00 | 0.00 | 63 | 1011.2 |
| 20260901151711 | 56 | 198 | 2.0 | 4.0 | 0.00 | 0.00 | 0.00 | 66 | 1011.2 |
| 20260901150711 | 53 | 198 | 0.0 | 2.0 | 0.00 | 0.00 | 0.00 | 70 | 1011.2 |
| 20260901145711 | 51 | 0.0 | 0.0 | 0.00 | 0.00 | 0.00 | 73 | 1011.2 | |
| 20260901144711 | 50 | 0.0 | 0.0 | 0.00 | 0.00 | 0.00 | 74 | 1011.1 | |
| 20260901143711 | 49 | 0.0 | 0.0 | 0.00 | 0.00 | 0.00 | 76 | 1011.1 | |
| 20260901142711 | 48 | 0.0 | 0.0 | 0.00 | 0.00 | 0.00 | 79 | 1011.0 | |
| 20260901141711 | 48 | 0.0 | 0.0 | 0.00 | 0.00 | 0.00 | 77 | 1010.8 | |
| 20260901140711 | 49 | 0.0 | 0.0 | 0.00 | 0.00 | 0.00 | 77 | 1010.7 | |
| 20260901135711 | 49 | 0.0 | 0.0 | 0.00 | 0.00 | 0.00 | 77 | 1010.7 | |
| 20260901134711 | 50 | 0.0 | 0.0 | 0.00 | 0.00 | 0.00 | 76 | 1010.6 | |
| 20260901133711 | 50 | 195 | 1.0 | 4.0 | 0.00 | 0.00 | 0.00 | 75 | 1010.6 |
| 20260901132731 | 52 | 189 | 0.0 | 3.0 | 0.00 | 0.00 | 0.00 | 69 | 1010.4 |
| 20260901131731 | 52 | 193 | 1.0 | 3.0 | 0.00 | 0.00 | 0.00 | 68 | 1010.4 |
| 20260901130711 | 51 | 0.0 | 0.0 | 0.00 | 0.00 | 0.00 | 71 | 1010.4 | |
| 20260901125711 | 51 | 0.0 | 0.0 | 0.00 | 0.00 | 0.00 | 71 | 1010.3 | |
| 20260901124711 | 51 | 0.0 | 0.0 | 0.00 | 0.00 | 0.00 | 73 | 1010.4 | |
| 20260901123712 | 50 | 0.0 | 0.0 | 0.00 | 0.00 | 0.00 | 75 | 1010.4 | |
| 20260901122711 | 49 | 0.0 | 0.0 | 0.00 | 0.00 | 0.00 | 74 | 1010.4 | |
| 20260901121711 | 48 | 0.0 | 0.0 | 0.00 | 0.00 | 0.00 | 76 | 1010.5 | |
| 20260901120711 | 48 | 0.0 | 0.0 | 0.00 | 0.00 | 0.00 | 76 | 1010.5 | |
| 20260901115711 | 48 | 0.0 | 0.0 | 0.00 | 0.00 | 0.00 | 73 | 1010.5 | |
| 20260901114711 | 48 | 0.0 | 0.0 | 0.00 | 0.00 | 0.00 | 73 | 1010.6 | |
| 20260901113711 | 48 | 0.0 | 0.0 | 0.00 | 0.00 | 0.00 | 72 | 1010.5 | |
| 20260901112731 | 48 | 0.0 | 0.0 | 0.00 | 0.00 | 0.00 | 71 | 1010.4 | |
| 20260901111711 | 49 | 0.0 | 0.0 | 0.00 | 0.00 | 0.00 | 70 | 1010.4 | |
| 20260901110711 | 49 | 0.0 | 0.0 | 0.00 | 0.00 | 0.00 | 70 | 1010.3 | |
| 20260901105711 | 49 | 0.0 | 0.0 | 0.00 | 0.00 | 0.00 | 69 | 1010.3 | |
| 20260901104711 | 49 | 0.0 | 0.0 | 0.00 | 0.00 | 0.00 | 69 | 1010.3 | |
| 20260901103711 | 49 | 0.0 | 0.0 | 0.00 | 0.00 | 0.00 | 70 | 1010.4 | |
| 20260901102711 | 49 | 0.0 | 0.0 | 0.00 | 0.00 | 0.00 | 68 | 1010.5 | |
| 20260901101711 | 49 | 0.0 | 0.0 | 0.00 | 0.00 | 0.00 | 66 | 1010.5 | |
| 20260901100711 | 49 | 0.0 | 0.0 | 0.00 | 0.00 | 0.00 | 67 | 1010.5 | |
| 20260901095711 | 50 | 0.0 | 0.0 | 0.00 | 0.00 | 0.00 | 66 | 1010.6 | |
| 20260901094711 | 50 | 0.0 | 0.0 | 0.00 | 0.00 | 0.00 | 67 | 1010.6 | |
| 20260901093711 | 50 | 0.0 | 0.0 | 0.00 | 0.00 | 0.00 | 66 | 1010.5 | |
| 20260901092711 | 50 | 0.0 | 0.0 | 0.00 | 0.00 | 0.00 | 66 | 1010.7 | |
| 20260901091712 | 50 | 0.0 | 0.0 | 0.00 | 0.00 | 0.00 | 66 | 1010.6 | |
| 20260901090731 | 50 | 0.0 | 0.0 | 0.00 | 0.00 | 0.00 | 64 | 1010.7 | |
| 20260901085731 | 51 | 0.0 | 0.0 | 0.00 | 0.00 | 0.00 | 65 | 1010.7 | |
| 20260901084711 | 51 | 0.0 | 0.0 | 0.00 | 0.00 | 0.00 | 65 | 1010.6 | |
| 20260901083711 | 52 | 0.0 | 0.0 | 0.00 | 0.00 | 0.00 | 64 | 1010.7 | |
| 20260901082712 | 52 | 0.0 | 0.0 | 0.00 | 0.00 | 0.00 | 64 | 1010.7 | |
| 20260901081731 | 53 | 0.0 | 0.0 | 0.00 | 0.00 | 0.00 | 63 | 1010.6 | |
| 20260901080731 | 54 | 0.0 | 0.0 | 0.00 | 0.00 | 0.00 | 62 | 1010.6 | |
| 20260901075711 | 55 | 0.0 | 0.0 | 0.00 | 0.00 | 0.00 | 61 | 1010.6 | |
| 20260901074731 | 56 | 0.0 | 0.0 | 0.00 | 0.00 | 0.00 | 59 | 1010.6 | |
| 20260901073711 | 57 | 0.0 | 0.0 | 0.00 | 0.00 | 0.00 | 59 | 1010.6 | |
| 20260901072711 | 57 | 196 | 1.0 | 3.0 | 0.00 | 0.00 | 0.00 | 58 | 1010.6 |
| 20260901071711 | 56 | 0.0 | 0.0 | 0.00 | 0.00 | 0.00 | 59 | 1010.5 | |
| 20260901070713 | 57 | 0.0 | 0.0 | 0.00 | 0.00 | 0.00 | 58 | 1010.4 | |
| 20260901065711 | 57 | 0.0 | 0.0 | 0.00 | 0.00 | 0.00 | 58 | 1010.4 | |
| 20260901064711 | 58 | 0.0 | 0.0 | 0.00 | 0.00 | 0.00 | 57 | 1010.6 | |
| 20260901063731 | 58 | 0.0 | 0.0 | 0.00 | 0.00 | 0.00 | 57 | 1010.7 | |
| 20260901062712 | 61 | 0.0 | 0.0 | 0.00 | 0.00 | 0.00 | 53 | 1010.8 | |
| 20260901061711 | 63 | 0.0 | 0.0 | 0.00 | 0.00 | 0.00 | 50 | 1010.7 | |
| 20260901060711 | 66 | 0.0 | 0.0 | 0.00 | 0.00 | 0.00 | 47 | 1010.6 | |
| 20260901055732 | 66 | 12 | 4.0 | 7.0 | 0.00 | 0.00 | 0.00 | 46 | 1010.5 |
| 20260901054712 | 66 | 1 | 2.0 | 5.0 | 0.00 | 0.00 | 0.00 | 46 | 1010.6 |
| 20260901053712 | 67 | 16 | 2.0 | 7.0 | 0.00 | 0.00 | 0.00 | 46 | 1010.6 |
| 20260901052711 | 67 | 358 | 5.0 | 7.0 | 0.00 | 0.00 | 0.00 | 46 | 1010.6 |
| 20260901051711 | 67 | 322 | 6.0 | 9.0 | 0.00 | 0.00 | 0.00 | 46 | 1010.6 |
| 20260901050712 | 67 | 355 | 5.0 | 7.0 | 0.00 | 0.00 | 0.00 | 46 | 1010.5 |
| 20260901045711 | 68 | 1 | 4.0 | 7.0 | 0.00 | 0.00 | 0.00 | 45 | 1010.5 |
| 20260901044711 | 68 | 8 | 4.0 | 7.0 | 0.00 | 0.00 | 0.00 | 45 | 1010.4 |
| 20260901043712 | 68 | 352 | 4.0 | 7.0 | 0.00 | 0.00 | 0.00 | 45 | 1010.4 |
| 20260901042711 | 68 | 3 | 4.0 | 7.0 | 0.00 | 0.00 | 0.00 | 46 | 1010.4 |
| 20260901041712 | 68 | 19 | 7.0 | 10.0 | 0.00 | 0.00 | 0.00 | 45 | 1010.3 |
| 20260901040712 | 69 | 347 | 7.0 | 9.0 | 0.00 | 0.00 | 0.00 | 45 | 1010.1 |
| 20260901035712 | 69 | 14 | 6.0 | 11.0 | 0.00 | 0.00 | 0.00 | 45 | 1009.9 |
| 20260901034713 | 71 | 16 | 6.0 | 10.0 | 0.00 | 0.00 | 0.00 | 43 | 1009.8 |
| 20260901033711 | 72 | 3 | 6.0 | 11.0 | 0.00 | 0.00 | 0.00 | 42 | 1009.7 |
| 20260901032712 | 72 | 343 | 5.0 | 10.0 | 0.00 | 0.00 | 0.00 | 42 | 1009.6 |
| 20260901031712 | 73 | 358 | 6.0 | 10.0 | 0.00 | 0.00 | 0.00 | 42 | 1009.5 |
| 20260901030712 | 74 | 16 | 4.0 | 8.0 | 0.00 | 0.00 | 0.00 | 40 | 1009.3 |
| 20260901025714 | 74 | 358 | 6.0 | 10.0 | 0.00 | 0.00 | 0.00 | 40 | 1009.2 |
| 20260901024732 | 75 | 10 | 7.0 | 12.0 | 0.00 | 0.00 | 0.00 | 39 | 1009.1 |
| 20260901023712 | 76 | 6 | 8.0 | 13.0 | 0.00 | 0.00 | 0.00 | 38 | 1008.9 |
| 20260901022732 | 77 | 22 | 9.0 | 14.0 | 0.00 | 0.00 | 0.00 | 37 | 1008.8 |
| 20260901021712 | 78 | 13 | 7.0 | 12.0 | 0.00 | 0.00 | 0.00 | 37 | 1008.8 |
| 20260901020732 | 79 | 18 | 8.0 | 13.0 | 0.00 | 0.00 | 0.00 | 36 | 1008.5 |
| 20260901015712 | 79 | 17 | 9.0 | 13.0 | 0.00 | 0.00 | 0.00 | 36 | 1008.4 |
| 20260901014712 | 80 | 16 | 9.0 | 14.0 | 0.00 | 0.00 | 0.00 | 35 | 1008.4 |
| 20260901013712 | 81 | 341 | 7.0 | 14.0 | 0.00 | 0.00 | 0.00 | 34 | 1008.4 |
| 20260901012712 | 82 | 17 | 8.0 | 15.0 | 0.00 | 0.00 | 0.00 | 33 | 1008.4 |
| 20260901011712 | 82 | 10 | 11.0 | 18.0 | 0.00 | 0.00 | 0.00 | 32 | 1008.4 |
| 20260901010712 | 83 | 349 | 11.0 | 19.0 | 0.00 | 0.00 | 0.00 | 32 | 1008.3 |
| 20260901005732 | 83 | 351 | 9.0 | 15.0 | 0.00 | 0.00 | 0.00 | 32 | 1008.4 |
| 20260901004712 | 83 | 17 | 8.0 | 12.0 | 0.00 | 0.00 | 0.00 | 32 | 1008.5 |
| 20260901003712 | 83 | 1 | 8.0 | 14.0 | 0.00 | 0.00 | 0.00 | 31 | 1008.5 |
| 20260901002712 | 83 | 22 | 8.0 | 15.0 | 0.00 | 0.00 | 0.00 | 30 | 1008.5 |
| 20260901001712 | 84 | 16 | 9.0 | 13.0 | 0.00 | 0.00 | 0.00 | 31 | 1008.5 |
| 20260901000732 | 84 | 3 | 8.0 | 14.0 | 0.00 | 0.00 | 0.00 | 30 | 1008.5 |
| 20260831235712 | 84 | 15 | 9.0 | 14.0 | 0.00 | 0.00 | 0.00 | 30 | 1008.6 |
| 20260831234712 | 84 | 56 | 8.0 | 12.0 | 0.00 | 0.00 | 0.00 | 30 | 1008.6 |
| 20260831233732 | 85 | 331 | 5.0 | 11.0 | 0.00 | 0.00 | 0.00 | 30 | 1008.7 |
| 20260831232712 | 84 | 14 | 6.0 | 13.0 | 0.00 | 0.00 | 0.00 | 30 | 1008.9 |
| 20260831231712 | 84 | 7 | 7.0 | 12.0 | 0.00 | 0.00 | 0.00 | 30 | 1009.0 |
| 20260831230712 | 84 | 356 | 4.0 | 10.0 | 0.00 | 0.00 | 0.00 | 30 | 1009.1 |
| 20260831225733 | 84 | 21 | 7.0 | 14.0 | 0.00 | 0.00 | 0.00 | 31 | 1009.3 |
| 20260831224712 | 83 | 7 | 8.0 | 13.0 | 0.00 | 0.00 | 0.00 | 31 | 1009.5 |
| 20260831223712 | 83 | 20 | 8.0 | 13.0 | 0.00 | 0.00 | 0.00 | 32 | 1009.6 |
| 20260831222712 | 83 | 25 | 7.0 | 14.0 | 0.00 | 0.00 | 0.00 | 31 | 1009.7 |
| 20260831221715 | 82 | 15 | 8.0 | 12.0 | 0.00 | 0.00 | 0.00 | 32 | 1009.9 |
| 20260831220713 | 82 | 19 | 7.0 | 13.0 | 0.00 | 0.00 | 0.00 | 32 | 1010.0 |
| 20260831215712 | 83 | 18 | 7.0 | 11.0 | 0.00 | 0.00 | 0.00 | 32 | 1010.3 |
| 20260831214732 | 82 | 18 | 5.0 | 11.0 | 0.00 | 0.00 | 0.00 | 31 | 1010.4 |
| 20260831213732 | 82 | 1 | 7.0 | 11.0 | 0.00 | 0.00 | 0.00 | 32 | 1010.6 |
| 20260831212713 | 81 | 21 | 7.0 | 12.0 | 0.00 | 0.00 | 0.00 | 32 | 1010.7 |
| 20260831211712 | 81 | 8 | 7.0 | 13.0 | 0.00 | 0.00 | 0.00 | 33 | 1010.8 |
| 20260831210712 | 81 | 33 | 6.0 | 10.0 | 0.00 | 0.00 | 0.00 | 33 | 1010.9 |
| 20260831205712 | 80 | 1 | 7.0 | 10.0 | 0.00 | 0.00 | 0.00 | 34 | 1011.1 |
| 20260831204712 | 79 | 5 | 5.0 | 10.0 | 0.00 | 0.00 | 0.00 | 34 | 1011.4 |
| 20260831203716 | 78 | 24 | 7.0 | 11.0 | 0.00 | 0.00 | 0.00 | 35 | 1011.5 |
| 20260831202712 | 78 | 346 | 6.0 | 11.0 | 0.00 | 0.00 | 0.00 | 35 | 1011.7 |